FALCON 9 DEB (48609 NORAD) Tracking and Keplerian Element Data

This shows tracking and keplerian element data for the satellite.

Feedback or suggestion? Click here.




ElementValue
Catalog48609
NameFALCON 9 DEB
Epoch Orbit1123
Epoch Day210.89388324
Epoch Year2021
RAAN142.9454
Inclination53.0315
Eccentricity0.0012502
Argument of Perigee155.1626
Mean Anonmoly204.9963
Mean Motion14.97669105
Decay Rate6.9E-07
L11 48609U 21041BJ 21210.89388324 .00000069 00000-0 28043-4 0 9992
L22 48609 53.0315 142.9454 0012502 155.1626 204.9963 14.97669105 11239

Live tracking and technical data element details for FALCON 9 DEB (NORAD 48609). FALCON 9 DEB can be tracked NOW for your location showing map with azimuth and elevation plus other details from your city location.

Track the satellite on the map from your city or location and see movement details for azimuth, elevation, latitude, longitude, range, height, and movement on the map or in text.







IsCatalogInMostPopularTable: catalog: 48609, numindb: 16
Update: records affected: 1



GetName: 48609 FALCON 9 DEB

Hit Count: updated at: Sat, 31 Jul 2021 14:54:43 GMT